Weather History for Marshfield, WI

Change the Weather History Date:

Wednesday, October 9, 2013

  Actual Average Record
Temperature  
Mean Temperature 60 °F -  
Max Temperature 73 °F 58 °F 79 °F (2011)
Min Temperature 48 °F 37 °F 19 °F (1915)
Degree Days  
Heating Degree Days 4    
Growing Degree Days 10 (Base 50)    
Moisture  
Dew Point 47 °F    
Average Humidity 64    
Maximum Humidity 86    
Minimum Humidity 41    
Precipitation  
Precipitation 0.00 in - - ()
Sea Level Pressure  
Sea Level Pressure 30.12 in    
Wind  
Wind Speed 7 mph (South)    
Max Wind Speed 13 mph    
Max Gust Speed 21 mph    
Visibility 10 miles    
Events      
Averages and records for this station are not official NWS values.
T = Trace of Precipitation, MM = Missing Value Source: NWS Daily Summary

Daily Weather History Graph

Daily Weather History Graph

Search for Another Location

Airport:

Trip Planner

Search our weather history database for the weather conditions in past years. The results will help you decide how hot, cold, wet, or windy it might be!

Date:

Astronomy

Oct. 09, 2013 Rise Set
Actual Time 7:08 AM CDT 6:26 PM CDT
Civil Twilight 6:39 AM CDT 6:55 PM CDT
Nautical Twilight 6:05 AM CDT 7:29 PM CDT
Astronomical Twilight 5:31 AM CDT 8:03 PM CDT
Moon 12:13 PM CDT (10/9) 9:51 PM CDT (10/9)
Length of Visible Light 12h 15m
Length of Day
11h 17m
Waxing Crescent, 25% of the Moon is Illuminated
Oct 9
Waxing Crescent
Oct 11
First Quarter
Oct 18
Full
Oct 26
Last Quarter
Nov 3
New

Hourly Weather History & Observations

Time (CDT) Temp. Dew Point Humidity Pressure Visibility Wind Dir Wind Speed Gust Speed Precip Events Conditions
12:54 AM 55.9 °F 45.0 °F 67% 30.06 in 10.0 mi South 8.1 mph - N/A   Clear
1:54 AM 55.0 °F 45.0 °F 69% 30.07 in 10.0 mi South 8.1 mph - N/A   Clear
2:54 AM 54.0 °F 45.0 °F 72% 30.09 in 10.0 mi South 4.6 mph - N/A   Clear
3:54 AM 50.0 °F 44.1 °F 80% 30.10 in 10.0 mi South 5.8 mph - N/A   Clear
4:54 AM 48.9 °F 44.1 °F 83% 30.11 in 10.0 mi South 6.9 mph - N/A   Clear
5:54 AM 50.0 °F 44.1 °F 80% 30.12 in 10.0 mi SSE 3.5 mph - N/A   Clear
6:54 AM 50.0 °F 44.1 °F 80% 30.13 in 10.0 mi South 3.5 mph - N/A   Clear
7:54 AM 50.0 °F 46.0 °F 86% 30.14 in 10.0 mi South 6.9 mph - N/A   Clear
8:54 AM 57.0 °F 48.0 °F 72% 30.14 in 10.0 mi South 10.4 mph - N/A   Clear
9:54 AM 63.0 °F 48.9 °F 60% 30.15 in 10.0 mi SSW 10.4 mph - N/A   Clear
10:54 AM 66.9 °F 50.0 °F 54% 30.15 in 10.0 mi SSW 9.2 mph 20.7 mph N/A   Clear
11:54 AM 68.0 °F 48.9 °F 50% 30.15 in 10.0 mi SSW 11.5 mph - N/A   Clear
12:54 PM 70.0 °F 48.0 °F 46% 30.14 in 10.0 mi SW 12.7 mph - N/A   Clear
1:54 PM 72.0 °F 48.0 °F 43% 30.13 in 10.0 mi SSW 6.9 mph - N/A   Clear
2:54 PM 73.0 °F 48.0 °F 41% 30.12 in 10.0 mi South 8.1 mph - N/A   Clear
3:54 PM 73.0 °F 48.0 °F 41% 30.12 in 10.0 mi South 11.5 mph 16.1 mph N/A   Clear
4:54 PM 71.1 °F 48.0 °F 44% 30.12 in 10.0 mi South 9.2 mph - N/A   Clear
5:54 PM 66.0 °F 48.9 °F 54% 30.12 in 10.0 mi South 4.6 mph - N/A   Clear
6:54 PM 62.1 °F 48.9 °F 62% 30.13 in 10.0 mi SE 4.6 mph - N/A   Clear
7:54 PM 60.1 °F 48.0 °F 64% 30.13 in 10.0 mi SE 3.5 mph - N/A   Clear
8:54 PM 55.9 °F 46.9 °F 72% 30.13 in 10.0 mi ESE 3.5 mph - N/A   Clear
9:54 PM 55.9 °F 46.0 °F 69% 30.13 in 10.0 mi SSE 6.9 mph - N/A   Clear
10:54 PM 55.0 °F 46.0 °F 72% 30.14 in 10.0 mi South 4.6 mph - N/A   Clear
11:54 PM 51.1 °F 44.1 °F 77% 30.13 in 10.0 mi South 6.9 mph - N/A   Clear